EW8735 Weather Reports


time (UTC)temp
C
wind
direction
speed
KPH
gust
KPH
rain 1hr
cm
rain 24hr
cm
rain mn
cm
humidity
%
barometer
mb
20260505041531 17 45 0.0 0.0 0.00 0.00 0.00 55 1003.0
20260505040039 17 45 0.0 0.0 0.00 0.00 0.00 54 1002.8
20260505034537 17 45 0.0 0.0 0.00 0.00 0.00 55 1002.7
20260505033029 17 45 0.0 0.0 0.00 0.00 0.00 57 1002.6
20260505031530 18 45 0.0 0.0 0.00 0.00 0.00 56 1002.5
20260505030029 20 45 0.0 0.0 0.00 0.00 0.00 54 1002.4
20260505024528 22 48 0.0 0.0 0.00 0.00 0.00 46 1002.4
20260505023026 24 46 0.0 0.0 0.00 0.00 0.00 37 1002.4
20260505021526 25 46 0.0 0.0 0.00 0.00 0.00 35 1002.5
20260505020035 25 48 0.0 0.0 0.00 0.00 0.00 35 1002.6
20260505014524 25 48 0.0 0.0 0.00 0.00 0.00 33 1002.6
20260505013025 26 45 0.0 0.0 0.00 0.00 0.00 31 1002.8
20260505011521 26 42 0.0 0.0 0.00 0.00 0.00 30 1002.9
20260505010021 26 28 0.0 0.0 0.00 0.00 0.00 28 1003.1
20260505004521 27 28 0.0 0.0 0.00 0.00 0.00 27 1003.0
20260505003019 27 27 0.0 0.0 0.00 0.00 0.00 26 1003.1
20260505001519 27 339 0.0 0.0 0.00 0.00 0.00 26 1003.1
20260505000032 28 359 0.0 0.0 0.00 0.00 0.00 25 1003.1
20260504234518 28 341 0.0 0.0 0.00 0.00 0.00 25 1003.2
20260504233016 28 342 0.0 0.0 0.00 0.00 0.00 26 1003.2
20260504231514 28 342 0.0 0.0 0.00 0.00 0.00 25 1003.3
20260504230014 28 359 0.0 0.0 0.00 0.00 0.00 28 1003.4
20260504224512 28 337 0.0 0.0 0.00 0.00 0.00 30 1003.5
20260504223010 28 359 0.0 0.0 0.00 0.00 0.00 30 1003.6
20260504221508 27 359 0.0 0.0 0.00 0.00 0.00 28 1003.9
20260504220016 27 337 0.0 0.0 0.00 0.00 0.00 26 1004.0
20260504214504 27 320 0.0 0.0 0.00 0.00 0.00 30 1004.1
20260504213006 27 319 0.0 0.0 0.00 0.00 0.00 29 1004.2
20260504211502 27 319 0.0 0.0 0.00 0.00 0.00 34 1004.3
20260504210106 26 318 0.0 0.0 0.00 0.00 0.00 31 1004.5
20260504204604 27 319 0.0 0.0 0.00 0.00 0.00 30 1004.7
20260504203056 26 319 0.0 0.0 0.00 0.00 0.00 31 1004.8
20260504201551 26 359 0.0 0.0 0.00 0.00 0.00 32 1004.9
20260504200049 25 329 0.0 0.0 0.00 0.00 0.00 33 1005.0
20260504194547 25 329 0.0 0.0 0.00 0.00 0.00 34 1005.0
20260504193058 25 359 0.0 0.0 0.00 0.00 0.00 33 1005.1
20260504191543 24 329 0.0 0.0 0.00 0.00 0.00 32 1005.2
20260504190042 24 329 0.0 0.0 0.00 0.00 0.00 34 1005.4
20260504184537 23 329 0.0 0.0 0.00 0.00 0.00 36 1005.4
20260504183041 23 329 0.0 0.0 0.00 0.00 0.00 41 1005.5
20260504181536 23 329 0.0 0.0 0.00 0.00 0.00 37 1005.7
20260504180036 23 329 0.0 0.0 0.00 0.00 0.00 39 1005.6
20260504174529 22 324 0.0 0.0 0.00 0.00 0.00 39 1005.7
20260504173030 22 359 0.0 0.0 0.00 0.00 0.00 41 1005.7
20260504171525 22 359 0.0 0.0 0.00 0.00 0.00 40 1005.7
20260504081514 11 8 0.0 0.0 0.00 0.00 0.00 74 1005.4
20260504050118 14 8 0.0 0.0 0.00 0.00 0.00 64 1005.5
20260504044559 15 8 0.0 0.0 0.00 0.00 0.00 63 1005.6
20260504043105 15 8 0.0 0.0 0.00 0.00 0.00 63 1005.5